Greybull, WY

5:59 PM MST on December 13, 2017 (GMT -0700)
South Big Horn County

Weather History for KGEY - January, 2014

Change the Weather History Date:

Sunday, January 26, 2014

  Actual Average Record
Temperature  
Mean Temperature 24 °F 18 °F  
Max Temperature 36 °F 30 °F 51 °F (2006)
Min Temperature 11 °F 6 °F -27 °F (2009)
Degree Days  
Heating Degree Days 41 47  
Month to date heating degree days 1104 1258  
Since 1 July heating degree days 4219 4581  
Cooling Degree Days 0 0  
Month to date cooling degree days 0 0  
Year to date cooling degree days 0 0  
Moisture  
Dew Point 13 °F    
Average Humidity 70    
Maximum Humidity 100    
Minimum Humidity 39    
Precipitation  
Precipitation T in 0.01 in 0.02 in (2009)
Month to date precipitation 0.02 0.19  
Year to date precipitation 0.02 0.19  
Sea Level Pressure  
Sea Level Pressure 30.15 in    
Wind  
Wind Speed 18 mph (NW)    
Max Wind Speed 47 mph    
Max Gust Speed 57 mph    
Visibility 8 miles    
Events Snow    
T = Trace of Precipitation, MM = Missing Value Source: NWS Daily Summary

Daily Weather History Graph

Daily Weather History Graph

Search for Another Location

Airport or City:

Trip Planner

Search our weather history database for the weather conditions in past years. The results will help you decide how hot, cold, wet, or windy it might be!

Date:

Astronomy

Jan. 26, 2014 Rise Set
Actual Time 7:37 AM MST 5:13 PM MST
Civil Twilight 7:05 AM MST 5:44 PM MST
Nautical Twilight 6:30 AM MST 6:19 PM MST
Astronomical Twilight 5:56 AM MST 6:54 PM MST
Moon 3:18 AM MST (1/26) 1:03 PM MST (1/26)
Length of Visible Light 10h 39m
Length of Day
9h 36m
Waning Crescent, 23% of the Moon is Illuminated
Jan 26
Waning Crescent
Jan 30
New
Feb 6
First Quarter
Feb 14
Full
Feb 22
Last Quarter

Hourly Weather History & Observations

Time (MST) Temp. Windchill Dew Point Humidity Pressure Visibility Wind Dir Wind Speed Gust Speed Precip Events Conditions
12:53 AM 15.1 °F 9.4 °F 12.9 °F 91% 30.13 in 10.0 mi NNE 3.5 mph - N/A   Clear
1:53 AM 18.0 °F 12.7 °F 16.0 °F 92% 30.09 in 10.0 mi SE 3.5 mph - N/A   Clear
2:53 AM 14.0 °F 6.5 °F 12.0 °F 92% 30.09 in 10.0 mi North 4.6 mph - N/A   Clear
3:53 AM 12.9 °F 0.7 °F 10.9 °F 92% 30.05 in 10.0 mi WNW 9.2 mph - N/A   Clear
4:53 AM 12.9 °F 6.9 °F 12.0 °F 96% 30.04 in 10.0 mi WNW 3.5 mph - N/A   Clear
5:53 AM 12.9 °F - 10.9 °F 92% 30.06 in 10.0 mi Calm Calm - N/A   Clear
6:53 AM 15.1 °F - 12.0 °F 88% 30.06 in 10.0 mi Calm Calm - N/A   Clear
7:53 AM 15.1 °F - 12.9 °F 91% 30.06 in 10.0 mi Calm Calm - N/A   Overcast
8:53 AM 19.0 °F 10.0 °F 16.0 °F 88% 30.09 in 10.0 mi North 6.9 mph - N/A   Overcast
9:32 AM 19.9 °F 13.4 °F 17.1 °F 89% 29.96 in 1.8 mi SSW 4.6 mph - 0.00 in Snow Light Snow
9:40 AM 19.9 °F 13.4 °F 17.1 °F 89% 29.96 in 1.0 mi SSW 4.6 mph - 0.00 in Snow Light Snow
9:50 AM 19.4 °F 11.5 °F 17.6 °F 93% 29.95 in 0.8 mi SSW 5.8 mph - 0.00 in Snow Light Snow
9:53 AM 21.0 °F 13.4 °F 19.0 °F 92% 30.10 in 1.0 mi SW 5.8 mph - 0.00 in Snow Light Snow
9:59 AM 25.0 °F 18.1 °F 21.9 °F 88% 29.95 in 2.0 mi West 5.8 mph - 0.00 in Snow Light Snow
10:06 AM 30.9 °F 19.8 °F 28.0 °F 89% 29.95 in 8.0 mi NW 16.1 mph 21.9 mph 0.00 in   Overcast
10:53 AM 36.0 °F 23.0 °F 28.9 °F 76% 30.08 in 10.0 mi NNW 29.9 mph 40.3 mph 0.00 in   Overcast
11:53 AM 36.0 °F 22.0 °F 26.1 °F 67% 30.10 in 10.0 mi NNW 35.7 mph 43.7 mph N/A   Overcast
12:53 PM 33.1 °F 18.0 °F 19.0 °F 56% 30.15 in 10.0 mi NNW 35.7 mph 50.6 mph 0.00 in   Mostly Cloudy
1:53 PM 30.9 °F 14.1 °F 12.0 °F 46% 30.19 in 10.0 mi NNW 41.4 mph 57.5 mph N/A   Scattered Clouds
2:53 PM 28.9 °F 12.1 °F 9.0 °F 43% 30.24 in 10.0 mi NNW 36.8 mph 47.2 mph N/A   Scattered Clouds
3:53 PM 26.1 °F 8.4 °F 7.0 °F 44% 30.27 in 10.0 mi NNW 35.7 mph 42.6 mph N/A   Overcast
4:53 PM 24.1 °F 7.1 °F 5.0 °F 44% 30.30 in 10.0 mi NNW 28.8 mph 52.9 mph N/A   Clear
5:53 PM 23.0 °F 6.9 °F 3.9 °F 44% 30.33 in 10.0 mi NNW 24.2 mph 43.7 mph N/A   Overcast
6:53 PM 23.0 °F 6.3 °F 1.9 °F 40% 30.36 in 10.0 mi NNW 26.5 mph 35.7 mph N/A   Overcast
7:53 PM 21.9 °F 5.8 °F 1.9 °F 42% 30.35 in 10.0 mi NW 23.0 mph - N/A   Overcast
8:53 PM 21.0 °F 6.2 °F 3.0 °F 46% 30.35 in 10.0 mi NW 18.4 mph - N/A   Overcast
9:53 PM 19.0 °F 5.0 °F 6.1 °F 57% 30.35 in 10.0 mi West 15.0 mph - N/A   Overcast
10:53 PM 17.1 °F 1.0 °F 6.1 °F 62% 30.31 in 10.0 mi West 18.4 mph - N/A   Overcast
11:53 PM 17.1 °F 1.5 °F 5.0 °F 59% 30.31 in 10.0 mi West 17.3 mph - N/A   Overcast